(126038) = 2001 YK69

Discovered at Socorro on 2001-12-18 by LINEAR.

Orbit

Orbit type: Main Belt

Note: WebGL enabled browser required.

epoch2024-03-31.0
epoch JD2460400.5
perihelion date2020-12-18.68140
perihelion JD2459202.18140
argument of perihelion (°)186.72476
ascending node (°)333.03800
inclination (°)0.71651
eccentricity0.1249714
perihelion distance (AU)2.0931185
Tisserand w.r.t. Jupiter3.5
ΔV w.r.t. Earth (km/sec)9.0
semimajor axis (AU)2.3920573
mean anomaly (°)319.24109
mean daily motion (°/day)0.26640750
aphelion distance (AU)2.691
period (years)3.7
P-vector [x]-0.93826424
P-vector [y]0.31795446
P-vector [z]0.13625408
Q-vector [x]-0.34587291
Q-vector [y]-0.85584090
Q-vector [z]-0.38458846
absolute magnitude16.68
phase slope0.15
uncertainty0
referenceMPEC 2024-E140
observations used694
oppositions16
arc length (days)8570
first opposition used2000
last opposition used2024
residual rms (arc-secs)0.71
perturbers coarse indicatorM-v
perturbers precise indicator003Ek
first observation date used2000-09-19.0
last observation date used2024-03-07.0
computer nameMPCLINUX
JD of orbit computation2455842.565591
perihelion JD uncertainty (days)9.2170E-05
argument of perihelion uncertainty (°)2.7715E-04
ascending node uncertainty (°)2.7626E-04
inclination uncertainty (°)4.2849E-06
eccentricity uncertainty 5.5448E-08
perihelion distance uncertainty (AU)1.2076E-07
Minimum Orbit Intersection Distances (in AU)
for orbit epoch: 2460400.5, reference: E2024-F93
Mercury1.71462
Venus1.3761
Earth1.1022
Mars0.43163
Jupiter2.28668
Saturn6.6838
Uranus16.345
Neptune27.2124

Observations

710 total observations over interval: 2000 09 19.18347 – 2024 03 07.55466
These data are available for download (format description).

Date (UT) J2000 RA J2000 Dec Magn Location Ref
2000 09 19.18347 22 51 26.47 -07 00 09.8 20.9 V 691 – Steward Observatory, Kitt Peak-Spacewatch MPS 118353
2000 09 19.20513 22 51 25.40 -07 00 16.5 21.0 V 691 – Steward Observatory, Kitt Peak-Spacewatch MPS 118353
2000 09 19.22751 22 51 24.18 -07 00 23.4 20.9 V 691 – Steward Observatory, Kitt Peak-Spacewatch MPS 118353
2001 12 07.33490 07 22 12.78 +23 08 12.1 20.2 V 691 – Steward Observatory, Kitt Peak-Spacewatch MPS 47107
2001 12 07.35877 07 22 11.95 +23 08 14.0 20.1 V 691 – Steward Observatory, Kitt Peak-Spacewatch MPS 47107
2001 12 07.38681 07 22 11.02 +23 08 15.8 20.0 V 691 – Steward Observatory, Kitt Peak-Spacewatch MPS 47107
2001 12 17.31740 07 15 22.55 +23 21 45.5 20.0   644 – Palomar Mountain/NEAT MPS 47107
2001 12 17.32967 07 15 21.92 +23 21 46.9 19.6   644 – Palomar Mountain/NEAT MPS 47107
2001 12 17.35475 07 15 20.57 +23 21 49.2 19.7   644 – Palomar Mountain/NEAT MPS 47107
2001 12 18.37842 07 14 27.90 +23 23 22.3 18.9   704 – Lincoln Laboratory ETS, New Mexico MPS 45503
2001 12 18.39449 07 14 27.03 +23 23 23.5 19.0   704 – Lincoln Laboratory ETS, New Mexico MPS 45503
2001 12 18.40986 07 14 26.18 +23 23 25.3 19.0   704 – Lincoln Laboratory ETS, New Mexico MPS 45503
2001 12 18.42710 07 14 25.25 +23 23 27.1 19.0   704 – Lincoln Laboratory ETS, New Mexico MPS 45503
2001 12 18.44229 07 14 24.38 +23 23 27.9 19.3   704 – Lincoln Laboratory ETS, New Mexico MPS 45503
2001 12 19.38855 07 13 34.41 +23 24 55.7 18.7   704 – Lincoln Laboratory ETS, New Mexico MPS 45503
2001 12 19.40598 07 13 33.42 +23 24 57.2 19.1   704 – Lincoln Laboratory ETS, New Mexico MPS 45503
2001 12 19.42718 07 13 32.21 +23 24 59.1 19.2   704 – Lincoln Laboratory ETS, New Mexico MPS 45503
2001 12 19.44240 07 13 31.35 +23 25 00.6 19.4   704 – Lincoln Laboratory ETS, New Mexico MPS 45503
2001 12 25.38938 07 07 47.19 +23 34 18.0 19.8   608 – Haleakala-AMOS MPS 47107
2001 12 25.39990 07 07 46.54 +23 34 19.1 20.3   608 – Haleakala-AMOS MPS 47107
2001 12 25.41024 07 07 45.87 +23 34 20.2 20.1   608 – Haleakala-AMOS MPS 47107
2002 01 08.29910 06 52 27.75 +23 53 14.4 18.9   704 – Lincoln Laboratory ETS, New Mexico MPS 47107
2002 01 08.31402 06 52 26.68 +23 53 15.7 19.8   704 – Lincoln Laboratory ETS, New Mexico MPS 47107
2002 01 08.32892 06 52 25.66 +23 53 16.3 19.3   704 – Lincoln Laboratory ETS, New Mexico MPS 47107
2002 01 08.34384 06 52 24.62 +23 53 17.2 19.0   704 – Lincoln Laboratory ETS, New Mexico MPS 47107
2002 01 14.22890 06 45 57.97 +23 58 41.4 18.5   704 – Lincoln Laboratory ETS, New Mexico MPS 47107
2002 01 14.24401 06 45 56.94 +23 58 42.2 18.9   704 – Lincoln Laboratory ETS, New Mexico MPS 47107
2002 01 14.25912 06 45 55.95 +23 58 43.1 19.0   704 – Lincoln Laboratory ETS, New Mexico MPS 47107
2002 01 14.27424 06 45 55.00 +23 58 44.1 19.0   704 – Lincoln Laboratory ETS, New Mexico MPS 47107
2002 01 14.29335 06 45 53.73 +23 58 44.8 19.2   704 – Lincoln Laboratory ETS, New Mexico MPS 47107
2004 10 05.16799 00 53 26.38 +06 31 55.2 20.2 V 691 – Steward Observatory, Kitt Peak-Spacewatch MPS 116543
2004 10 05.19569 00 53 24.79 +06 31 45.9 20.1 V 691 – Steward Observatory, Kitt Peak-Spacewatch MPS 116543
2004 10 05.22422 00 53 23.13 +06 31 36.3 20.1 V 691 – Steward Observatory, Kitt Peak-Spacewatch MPS 116543
2004 10 12.15976 00 46 52.76 +05 52 09.3 20.5 V 691 – Steward Observatory, Kitt Peak-Spacewatch MPS 116543
2004 10 12.18706 00 46 51.19 +05 51 59.9 20.3 V 691 – Steward Observatory, Kitt Peak-Spacewatch MPS 116543
2004 10 12.21394 00 46 49.62 +05 51 50.6 20.1 V 691 – Steward Observatory, Kitt Peak-Spacewatch MPS 116543
2004 11 03.13988 00 29 30.97 +04 03 05.7 20.6 V 691 – Steward Observatory, Kitt Peak-Spacewatch MPS 118353
2004 11 03.15895 00 29 30.25 +04 03 01.5 20.5 V 691 – Steward Observatory, Kitt Peak-Spacewatch MPS 118353
2004 11 03.18210 00 29 29.42 +04 02 56.3 20.4 V 691 – Steward Observatory, Kitt Peak-Spacewatch MPS 118353
2005 11 05.47367 09 54 32.16 +13 09 03.7 21.1 V 691 – Steward Observatory, Kitt Peak-Spacewatch MPS 149396
2005 11 05.48613 09 54 33.35 +13 08 57.7 21.4 V 691 – Steward Observatory, Kitt Peak-Spacewatch MPS 149396
2005 11 05.49857 09 54 34.48 +13 08 51.0 21.8 V 691 – Steward Observatory, Kitt Peak-Spacewatch MPS 149396
2005 12 25.47762 10 53 55.71 +07 21 05.1 18.9 V 703 – Catalina Sky Survey MPS 156488
2005 12 25.48674 10 53 56.14 +07 21 02.0 20.4 V 703 – Catalina Sky Survey MPS 156488
2005 12 25.49583 10 53 56.36 +07 21 03.2 19.9 V 703 – Catalina Sky Survey MPS 156488
2005 12 25.50492 10 53 56.86 +07 20 59.6 20.3 V 703 – Catalina Sky Survey MPS 156488
2006 01 02.41280 10 58 35.65 +06 50 24.0 19.8   704 – Lincoln Laboratory ETS, New Mexico MPS 157672
2006 01 02.42615 10 58 35.99 +06 50 21.4 20.2   704 – Lincoln Laboratory ETS, New Mexico MPS 157672
2006 01 02.45289 10 58 36.74 +06 50 17.0 20.6   704 – Lincoln Laboratory ETS, New Mexico MPS 157672
2006 01 02.46620 10 58 37.13 +06 50 13.0 20.1   704 – Lincoln Laboratory ETS, New Mexico MPS 157672
2006 01 07.48700 11 00 38.16 +06 36 16.2 20.2 V G96 – Mt. Lemmon Survey MPS 158864
2006 01 07.49339 11 00 38.30 +06 36 15.3 20.1 V G96 – Mt. Lemmon Survey MPS 158864
2006 01 07.49984 11 00 38.41 +06 36 14.4 20.1 V G96 – Mt. Lemmon Survey MPS 158864
2006 01 07.50634 11 00 38.48 +06 36 13.5 19.9 V G96 – Mt. Lemmon Survey MPS 158864
2006 01 26.37577 11 01 08.70 +06 26 17.7 19.6 V 691 – Steward Observatory, Kitt Peak-Spacewatch MPS 160321
2006 01 26.38074 11 01 08.60 +06 26 18.2 19.6 V 691 – Steward Observatory, Kitt Peak-Spacewatch MPS 160321
2006 01 26.39312 11 01 08.38 +06 26 19.2 19.6 V 691 – Steward Observatory, Kitt Peak-Spacewatch MPS 160321
2006 01 26.39809 11 01 08.27 +06 26 19.7 19.6 V 691 – Steward Observatory, Kitt Peak-Spacewatch MPS 160321
2006 01 26.41048 11 01 08.02 +06 26 20.5 19.6 V 691 – Steward Observatory, Kitt Peak-Spacewatch MPS 160321
2006 01 26.41544 11 01 07.93 +06 26 21.0 19.6 V 691 – Steward Observatory, Kitt Peak-Spacewatch MPS 160321
2006 01 28.34403 11 00 31.54 +06 29 18.6 19.5 R 701 – Junk Bond Observatory, Sierra Vista MPS 161689
2006 01 28.39176 11 00 30.44 +06 29 23.5 18.8 R 701 – Junk Bond Observatory, Sierra Vista MPS 161689
2006 01 28.46955 11 00 28.60 +06 29 31.3 19.1 R 701 – Junk Bond Observatory, Sierra Vista MPS 161689
2006 01 30.40592 10 59 44.20 +06 33 14.8 19.6 V 691 – Steward Observatory, Kitt Peak-Spacewatch MPS 161689
2006 01 30.42318 10 59 43.77 +06 33 17.4 19.7 V 691 – Steward Observatory, Kitt Peak-Spacewatch MPS 161689
2006 01 30.44044 10 59 43.29 +06 33 19.6 19.7 V 691 – Steward Observatory, Kitt Peak-Spacewatch MPS 161689
2006 02 06.32591 10 56 09.36 +06 52 09.1 19.3 R 699 – Lowell Observatory-LONEOS MPS 255660
2006 02 06.36980 10 56 07.57 +06 52 18.1   699 – Lowell Observatory-LONEOS MPS 255660
2006 02 06.39174 10 56 06.67 +06 52 22.8   699 – Lowell Observatory-LONEOS MPS 255660
2006 02 07.36028 10 55 29.92 +06 55 38.3 19.2 V 703 – Catalina Sky Survey MPS 162730
2006 02 07.36784 10 55 29.53 +06 55 40.0 19.4 V 703 – Catalina Sky Survey MPS 162730
2006 02 07.37541 10 55 29.24 +06 55 43.4 19.1 V 703 – Catalina Sky Survey MPS 162730
2006 02 07.38282 10 55 28.99 +06 55 44.3 19.1 V G96 – Mt. Lemmon Survey MPS 162730
2006 02 07.38296 10 55 28.99 +06 55 44.7 19.1 V 703 – Catalina Sky Survey MPS 162730
2006 02 07.38907 10 55 28.77 +06 55 45.4 19.0 V G96 – Mt. Lemmon Survey MPS 162730
2006 02 07.39516 10 55 28.48 +06 55 46.6 19.3 V G96 – Mt. Lemmon Survey MPS 162730
2006 02 07.40126 10 55 28.20 +06 55 48.0 19.3 V G96 – Mt. Lemmon Survey MPS 162730
2006 02 20.22363 10 45 23.08 +07 50 38.8   691 – Steward Observatory, Kitt Peak-Spacewatch MPS 163686
2006 02 20.23600 10 45 22.39 +07 50 41.9   691 – Steward Observatory, Kitt Peak-Spacewatch MPS 163686
2006 02 20.24220 10 45 22.04 +07 50 43.7   691 – Steward Observatory, Kitt Peak-Spacewatch MPS 163686
2006 02 20.25458 10 45 21.34 +07 50 47.4   691 – Steward Observatory, Kitt Peak-Spacewatch MPS 163686
2006 02 20.25961 10 45 21.06 +07 50 48.9   691 – Steward Observatory, Kitt Peak-Spacewatch MPS 163686
2006 02 20.26654 10 45 20.59 +07 50 51.3 18.8 V 703 – Catalina Sky Survey MPS 163686
2006 02 20.27199 10 45 20.35 +07 50 51.5   691 – Steward Observatory, Kitt Peak-Spacewatch MPS 163686
